WB4ME Weather Reports


Display with metric or nautical units.
time (UTC)temp
F
wind
direction
speed
MPH
gust
MPH
rain 1hr
in
rain 24hr
in
rain mn
in
humidity
%
barometer
mb
20260510203004 72 257 2.0 9.0 0.00 0.00 0.00 55 1027.3
20260510202004 72 198 2.0 7.0 0.00 0.00 0.00 54 1027.3
20260510201004 73 235 12.0 12.0 0.00 0.00 0.00 52 1027.3
20260510200005 74 217 6.0 9.0 0.00 0.00 0.00 51 1027.3
20260510194004 74 191 2.0 14.0 0.00 0.00 0.00 51 1027.3
20260510193004 74 235 4.0 13.0 0.00 0.00 0.00 51 1027.3
20260510192007 74 240 6.0 12.0 0.00 0.00 0.00 50 1027.3
20260510191005 74 193 5.0 11.0 0.00 0.00 0.00 54 1027.3
20260510190005 73 213 5.0 13.0 0.00 0.00 0.00 51 1027.3
20260510185004 74 156 6.0 13.0 0.00 0.00 0.00 51 1027.3
20260510184005 74 237 9.0 13.0 0.00 0.00 0.00 51 1027.3
20260510180005 74 204 1.0 11.0 0.00 0.00 0.00 55 1027.3
20260510175004 74 226 3.0 8.0 0.00 0.00 0.00 54 1027.3
20260510174004 73 242 4.0 9.0 0.00 0.00 0.00 61 1027.3
20260510173004 72 214 3.0 9.0 0.00 0.00 0.00 61 1027.3
20260510172004 72 219 5.0 11.0 0.00 0.00 0.00 58 1027.3
20260510171004 71 119 1.0 9.0 0.00 0.00 0.00 61 1027.3
20260510170005 71 193 4.0 11.0 0.00 0.00 0.00 62 1027.3
20260510165004 71 204 0.0 9.0 0.00 0.00 0.00 58 1027.3
20260510164005 71 277 4.0 11.0 0.00 0.00 0.00 63 1027.3
20260510163005 70 192 4.0 11.0 0.00 0.00 0.00 62 1027.3
20260510162005 70 207 2.0 13.0 0.00 0.00 0.00 59 1027.3
20260510161004 70 222 8.0 12.0 0.00 0.00 0.00 59 1027.3
20260510160005 71 240 4.0 9.0 0.00 0.00 0.00 60 1027.3
20260510155004 70 285 0.0 8.0 0.00 0.00 0.00 60 1027.3
20260510154004 70 229 0.0 9.0 0.00 0.00 0.00 64 1027.3
20260510153005 69 238 1.0 6.0 0.00 0.00 0.00 66 1027.3
20260510152004 68 179 0.0 7.0 0.00 0.00 0.00 66 1027.3
20260510150004 66 250 3.0 9.0 0.00 0.00 0.00 71 1027.3
20260510145004 66 219 3.0 8.0 0.00 0.00 0.00 74 1027.3
20260510144004 65 210 4.0 12.0 0.00 0.00 0.00 73 1027.3
20260510143004 64 216 3.0 11.0 0.00 0.00 0.00 73 1027.3
20260510141004 44 106 255.0 255.0 0.00 0.00 0.00 93 1027.3
20260510140004 44 106 255.0 255.0 0.00 0.00 0.00 93 1027.3
20260510134005 44 106 255.0 255.0 0.00 0.00 0.00 93 1027.3
20260510133110 44 106 255.0 255.0 0.00 0.00 0.00 93 1027.3
20260510132115 44 106 255.0 255.0 0.00 0.00 0.00 93 1027.3
20260510130005 44 106 255.0 255.0 0.00 0.00 0.00 93 1027.3
20260510125005 44 106 255.0 255.0 0.00 0.00 0.00 93 1027.3
20260510124005 44 106 255.0 255.0 0.00 0.00 0.00 93 1027.3
20260510123109 44 106 255.0 255.0 0.00 0.00 0.00 93 1027.3
20260510122109 44 106 255.0 255.0 0.00 0.00 0.00 93 1027.3
20260510121004 44 106 255.0 255.0 0.00 0.00 0.00 93 1027.3
20260510120005 44 106 255.0 255.0 0.00 0.00 0.00 93 1027.3
20260510115310 44 106 255.0 255.0 0.00 0.00 0.00 93 1027.3
20260510114005 44 106 255.0 255.0 0.00 0.00 0.00 93 1027.3
20260510113109 44 106 255.0 255.0 0.00 0.00 0.00 93 1027.3
20260510111004 44 106 255.0 255.0 0.00 0.00 0.00 93 1027.3
20260510110005 44 106 255.0 255.0 0.00 0.00 0.00 93 1027.3
20260510105609 44 106 255.0 255.0 0.00 0.00 0.00 93 1027.3
20260510104004 44 106 255.0 255.0 0.00 0.00 0.00 93 1027.3
20260510102005 44 106 255.0 255.0 0.00 0.00 0.00 93 1027.3
20260510101410 44 106 255.0 255.0 0.00 0.00 0.00 93 1027.3
20260510095004 44 106 255.0 255.0 0.00 0.00 0.00 93 1027.3
20260510094013 44 106 255.0 255.0 0.00 0.00 0.00 93 1027.3
20260510093004 44 106 255.0 255.0 0.00 0.00 0.00 93 1027.3
20260510090004 46 105 0.0 0.0 0.00 0.00 0.00 94 1027.3
20260510085004 46 105 0.0 0.0 0.00 0.00 0.00 94 1027.3
20260510084005 46 105 0.0 0.0 0.00 0.00 0.00 94 1027.3
20260510083004 47 105 0.0 0.0 0.00 0.00 0.00 93 1027.3
20260510080004 47 105 0.0 0.0 0.00 0.00 0.00 93 1027.3
20260510075003 47 104 0.0 0.0 0.00 0.00 0.00 93 1027.3
20260510074003 48 105 0.0 0.0 0.00 0.00 0.00 93 1027.3
20260510073003 48 105 0.0 1.0 0.00 0.00 0.00 93 1027.3
20260510072004 48 92 0.0 0.0 0.00 0.00 0.00 93 1027.3
20260510071003 48 92 0.0 0.0 0.00 0.00 0.00 93 1027.3
20260510070004 49 92 0.0 0.0 0.00 0.00 0.00 93 1027.3
20260510065003 48 92 0.0 1.0 0.00 0.00 0.00 93 1027.3
20260510064004 49 139 0.0 0.0 0.00 0.00 0.00 93 1027.3
20260510062004 49 140 0.0 0.0 0.00 0.00 0.00 92 1027.3
20260510061004 50 140 0.0 0.0 0.00 0.00 0.00 92 1027.3
20260510060005 50 139 0.0 0.0 0.00 0.00 0.00 91 1027.3
20260510054004 51 139 0.0 0.0 0.00 0.00 0.00 91 1027.3
20260510052004 51 139 0.0 0.0 0.00 0.00 0.00 89 1027.3
20260510051004 52 139 0.0 0.0 0.00 0.00 0.00 90 1027.3
20260510050005 52 140 0.0 0.0 0.00 0.00 0.00 89 1027.3
20260510045005 52 140 0.0 0.0 0.00 0.00 0.00 88 1027.3
20260510044004 53 140 0.0 0.0 0.00 0.00 0.00 88 1027.3
20260510043004 53 140 0.0 0.0 0.00 0.00 0.00 86 1027.3
20260510041003 55 140 0.0 1.0 0.00 0.00 0.00 84 1027.3
20260510040006 55 139 0.0 0.0 0.00 0.00 0.00 84 1027.3
20260510034004 55 139 0.0 0.0 0.00 0.00 0.00 83 1027.3
20260510033004 56 139 0.0 0.0 0.00 0.00 0.00 82 1027.3
20260510032004 56 139 0.0 0.0 0.00 0.00 0.00 81 1027.3
20260510030004 57 139 0.0 0.0 0.00 0.00 0.00 79 1027.3
20260510025004 58 139 0.0 0.0 0.00 0.00 0.00 78 1027.3
20260510024006 58 139 0.0 1.0 0.00 0.00 0.00 76 1027.3
20260510023004 58 143 0.0 0.0 0.00 0.00 0.00 76 1027.3
20260510022004 58 127 0.0 0.0 0.00 0.00 0.00 75 1027.3
20260510021004 59 127 0.0 1.0 0.00 0.00 0.00 75 1027.3
20260510020005 59 127 0.0 0.0 0.00 0.00 0.00 75 1027.3
20260510015005 59 127 0.0 0.0 0.00 0.00 0.00 75 1027.3
20260510014004 59 127 0.0 0.0 0.00 0.00 0.00 74 1027.3
20260510013004 60 137 0.0 0.0 0.00 0.00 0.00 73 1027.3
20260510011004 61 222 0.0 0.0 0.00 0.00 0.00 67 1027.3
20260510010005 62 222 0.0 0.0 0.00 0.00 0.00 66 1027.3
20260510005005 63 223 0.0 1.0 0.00 0.00 0.00 65 1027.3
20260510004004 64 222 0.0 2.0 0.00 0.00 0.00 64 1027.3
20260510003004 64 225 1.0 4.0 0.00 0.00 0.00 62 1027.3
20260510002004 65 236 0.0 4.0 0.00 0.00 0.00 61 1027.3
20260510001004 65 250 0.0 3.0 0.00 0.00 0.00 61 1027.3
20260509235004 66 221 2.0 6.0 0.00 0.00 0.00 60 1027.3
20260509234004 67 222 2.0 7.0 0.00 0.00 0.00 59 1027.3
20260509233004 67 210 1.0 8.0 0.00 0.00 0.00 60 1027.3
20260509232003 67 217 3.0 8.0 0.00 0.00 0.00 58 1027.3
20260509231004 68 240 4.0 8.0 0.00 0.00 0.00 57 1027.3
20260509230004 68 211 4.0 7.0 0.00 0.00 0.00 57 1027.3
20260509225004 69 226 6.0 6.0 0.00 0.00 0.00 55 1027.3
20260509224004 69 231 2.0 9.0 0.00 0.00 0.00 54 1027.3
20260509223003 69 252 1.0 10.0 0.00 0.00 0.00 56 1027.3
20260509222004 69 205 6.0 11.0 0.00 0.00 0.00 55 1027.3
20260509221004 69 229 7.0 9.0 0.00 0.00 0.00 57 1027.3
20260509220006 70 208 1.0 9.0 0.00 0.00 0.00 54 1027.3
20260509212004 70 240 1.0 11.0 0.00 0.00 0.00 55 1027.3
20260509211004 70 231 3.0 8.0 0.00 0.00 0.00 58 1027.3
20260509210005 69 20 0.0 10.0 0.00 0.00 0.00 57 1027.3
20260509205005 69 211 7.0 9.0 0.00 0.00 0.00 57 1027.3